Weather History for Madison, WI

Change the Weather History Date:

Monday, January 5, 2015

  Actual Average Record
Temperature  
Mean Temperature -2 °F 19 °F  
Max Temperature 3 °F 26 °F 51 °F (2012)
Min Temperature -8 °F 12 °F -27 °F (1884)
Degree Days  
Heating Degree Days 67 46  
Month to date heating degree days 237 230  
Since 1 July heating degree days 3049 3109  
Cooling Degree Days 0 0  
Month to date cooling degree days 0 0  
Year to date cooling degree days 0 0  
Moisture  
Dew Point -9 °F    
Average Humidity 72    
Maximum Humidity 87    
Minimum Humidity 56    
Precipitation  
Precipitation 0.13 in 0.05 in 1.11 in (1939)
Month to date precipitation 0.28 0.21  
Year to date precipitation 0.28 0.21  
Snow  
Snow 1.30 in 0.40 in 9.90 in (1929)
Month to date snowfall 3.8 2.0  
Since 1 July snowfall 12.4 19.6  
Snow Depth 1.00 in    
Sea Level Pressure  
Sea Level Pressure 30.49 in    
Wind  
Wind Speed 5 mph (WSW)    
Max Wind Speed 13 mph    
Max Gust Speed 17 mph    
Visibility 7 miles    
Events Snow    
T = Trace of Precipitation, MM = Missing Value Source: NWS Daily Summary

Daily Weather History Graph

Daily Weather History Graph

Search for Another Location

Airport:

Trip Planner

Search our weather history database for the weather conditions in past years. The results will help you decide how hot, cold, wet, or windy it might be!

Date:

Astronomy

Jan. 05, 2015 Rise Set
Actual Time 7:29 AM CST 4:36 PM CST
Civil Twilight 6:57 AM CST 5:08 PM CST
Nautical Twilight 6:21 AM CST 5:44 PM CST
Astronomical Twilight 5:46 AM CST 6:18 PM CST
Moon 5:33 PM CST (1/5) 7:23 AM CST (1/5)
Length of Visible Light 10h 11m
Length of Day
9h 07m
Full, 100% of the Moon is Illuminated
Jan 5
Full
Jan 13
Last Quarter
Jan 20
New
Jan 26
First Quarter
Feb 3
Full

Hourly Weather History & Observations

Time (CST) Temp. Windchill Dew Point Humidity Pressure Visibility Wind Dir Wind Speed Gust Speed Precip Events Conditions
12:53 AM -4.0 °F -16.3 °F -14.1 °F 62% 30.58 in 10.0 mi Variable 5.8 mph - N/A   Clear
1:53 AM -5.1 °F -17.6 °F -14.1 °F 65% 30.59 in 10.0 mi West 5.8 mph - N/A   Clear
2:53 AM -6.0 °F -14.7 °F -14.1 °F 68% 30.61 in 10.0 mi West 3.5 mph - N/A   Clear
3:53 AM -6.0 °F -14.7 °F -14.1 °F 68% 30.60 in 10.0 mi Variable 3.5 mph - N/A   Clear
4:53 AM -7.1 °F -18.1 °F -13.0 °F 75% 30.61 in 10.0 mi West 4.6 mph - N/A   Clear
5:53 AM -7.6 °F -18.8 °F -13.0 °F 77% 30.54 in 10.0 mi West 4.6 mph - N/A   Clear
6:53 AM -8.0 °F -16.9 °F -14.1 °F 75% 30.63 in 10.0 mi WNW 3.5 mph - N/A   Clear
7:53 AM -8.0 °F -16.9 °F -14.1 °F 75% 30.64 in 10.0 mi West 3.5 mph - N/A   Clear
8:53 AM -6.0 °F -20.1 °F -13.0 °F 72% 30.64 in 10.0 mi WSW 6.9 mph - N/A   Partly Cloudy
9:53 AM -4.0 °F -17.8 °F -13.0 °F 65% 30.64 in 10.0 mi West 6.9 mph - N/A   Partly Cloudy
10:53 AM -2.9 °F -16.5 °F -14.1 °F 59% 30.63 in 10.0 mi Variable 6.9 mph - N/A   Mostly Cloudy
11:53 AM -2.0 °F -16.6 °F -13.0 °F 60% 30.58 in 10.0 mi West 8.1 mph - N/A   Mostly Cloudy
12:53 PM -0.0 °F -9.9 °F -11.9 °F 57% 30.56 in 10.0 mi Variable 4.6 mph - N/A   Mostly Cloudy
1:53 PM 1.0 °F -11.7 °F -11.0 °F 57% 30.57 in 10.0 mi WSW 6.9 mph - N/A   Mostly Cloudy
2:53 PM -0.0 °F -13.0 °F -11.0 °F 60% 30.54 in 10.0 mi WSW 6.9 mph - N/A   Overcast
3:53 PM 1.0 °F - -11.0 °F 57% 30.48 in 10.0 mi Calm Calm - N/A   Overcast
4:53 PM 1.9 °F -13.8 °F -9.0 °F 60% 30.46 in 10.0 mi South 10.4 mph - N/A   Overcast
5:53 PM 1.0 °F -14.9 °F -9.0 °F 63% 30.42 in 10.0 mi South 10.4 mph - N/A   Overcast
6:53 PM 1.9 °F -13.8 °F -8.0 °F 63% 30.45 in 10.0 mi SSW 10.4 mph - N/A   Overcast
7:14 PM 1.9 °F -9.2 °F -7.1 °F 66% 30.38 in 2.0 mi Variable 5.8 mph - 0.00 in Snow Light Snow
7:20 PM 1.9 °F -12.9 °F -6.0 °F 69% 30.39 in 1.0 mi SW 9.2 mph - 0.00 in Snow Light Snow
7:38 PM 1.9 °F -7.6 °F -2.9 °F 80% 30.38 in 0.8 mi Variable 4.6 mph - 0.01 in Snow Light Snow
7:53 PM 1.9 °F -7.6 °F -4.0 °F 76% 30.45 in 1.0 mi WSW 4.6 mph - 0.02 in Snow Light Snow
8:50 PM 1.4 °F - -2.2 °F 85% 30.34 in 1.0 mi Calm Calm - 0.03 in Snow Light Snow
8:53 PM 1.9 °F - -2.9 °F 80% 30.42 in 1.0 mi Calm Calm - 0.03 in Snow Light Snow
9:21 PM 1.9 °F -5.6 °F -2.9 °F 80% 30.36 in 0.8 mi Variable 3.5 mph - 0.01 in Snow Light Snow
9:53 PM 1.9 °F -5.6 °F -2.0 °F 83% 30.44 in 1.0 mi West 3.5 mph - 0.04 in Snow Light Snow
10:21 PM 1.9 °F - -2.0 °F 83% 30.35 in 1.0 mi Calm Calm - 0.01 in Snow Light Snow
10:53 PM 1.9 °F - -2.0 °F 83% 30.42 in 1.0 mi Calm Calm - 0.02 in Snow Light Snow
11:35 PM 3.0 °F - -2.9 °F 76% 30.33 in 2.0 mi Calm Calm - 0.02 in Snow Light Snow
11:51 PM 3.2 °F - -2.2 °F 78% 30.32 in 3.0 mi Calm Calm - 0.02 in Snow Light Snow
11:53 PM 1.9 °F - -2.0 °F 83% 30.40 in 3.0 mi Calm Calm - 0.02 in Snow Light Snow